Back to catalog

FALCON 9 R/B

AliveHEO
NORAD 58964·ROCKET BODY·🇺🇸 United States

Launched Feb 15, 2024 from Cape Canaveral Space Force Station

Loading…

Next Passes (next 24 hours)

TLE

StaleSource: Space-Track

Epoch: Feb 15, 2024, 06:40 UTC

1 58964U 24030B   24046.27792824 -.00014702  00000-0  00000-0 0  9993
2 58964  28.5100  65.0800 9704700 239.9600   5.0000  0.08200507    02

Track FALCON 9 R/B in real time with AllMySat

Download on the App Store